QPF
0.01 0.02 0.03 0.03 0.04 0.06 0.05 0.04 0.04 0.03 0.06 0.08 0.06 0.04 0.05 0.03 0.02 0.02 0.02 0.03 0.05 0.05 0.08 0.12 0.16 0.20 0.27 0.26 0.26 0.28 0.33 0.35 0.30 0.24 0.20 0.13 0.08 0.09 0.10 0.09 0.09 0.07 0.07 0.06
0.01 0.02 0.02 0.02 0.02 0.05 0.05 0.05 0.04 0.03 0.04 0.05 0.05 0.03 0.04 0.03 0.02 0.01 0.02 0.02 0.03 0.05 0.07 0.08 0.11 0.16 0.21 0.23 0.22 0.25 0.28 0.32 0.31 0.26 0.24 0.20 0.18 0.15 0.13 0.13 0.11 0.09 0.07 0.06
0.02 0.02 0.01 0.03 0.02 0.02 0.03 0.04 0.04 0.03 0.03 0.04 0.05 0.04 0.03 0.03 0.02 0.01 0.01 0.02 0.02 0.04 0.05 0.06 0.07 0.08 0.13 0.17 0.20 0.18 0.21 0.27 0.30 0.33 0.38 0.36 0.30 0.22 0.16 0.14 0.13 0.12 0.10 0.08
0.03 0.02 0.01 0.03 0.02 0.02 0.02 0.02 0.03 0.04 0.04 0.04 0.04 0.04 0.02 0.02 0.02 0.01 0.01 0.02 0.02 0.03 0.03 0.05 0.06 0.05 0.06 0.09 0.14 0.18 0.19 0.23 0.26 0.34 0.39 0.37 0.29 0.21 0.16 0.16 0.16 0.15 0.14 0.12
0.02 0.01 0.02 0.03 0.01 0.01 0.02 0.02 0.02 0.03 0.03 0.04 0.03 0.02 0.01 0.01 0.01 0.01 0.00 0.00 0.01 0.02 0.02 0.03 0.04 0.05 0.05 0.05 0.08 0.12 0.18 0.22 0.25 0.29 0.32 0.36 0.32 0.24 0.23 0.22 0.18 0.16 0.15 0.15
0.02 0.01 0.01 0.01 0.01 0.01 0.03 0.02 0.02 0.03 0.04 0.04 0.02 0.01 0.00 0.00 0.00 0.00 0.00 0.00 0.00 0.01 0.02 0.02 0.04 0.06 0.07 0.07 0.08 0.10 0.13 0.17 0.19 0.22 0.25 0.27 0.31 0.31 0.31 0.27 0.23 0.21 0.20 0.19
0.01 0.01 0.01 0.01 0.01 0.01 0.03 0.04 0.04 0.06 0.06 0.03 0.01 0.01 0.00 0.00 0.00 0.00 0.00 0.00 0.00 0.00 0.01 0.01 0.03 0.05 0.06 0.07 0.06 0.07 0.08 0.10 0.14 0.17 0.18 0.21 0.26 0.30 0.30 0.30 0.28 0.27 0.23 0.19
0.01 0.01 0.01 0.01 0.01 0.02 0.03 0.04 0.04 0.04 0.04 0.03 0.01 0.00 0.00 0.00 0.00 0.00 0.00 0.00 0.00 0.00 0.01 0.01 0.02 0.03 0.04 0.06 0.05 0.05 0.06 0.07 0.09 0.13 0.15 0.18 0.21 0.25 0.26 0.26 0.24 0.22 0.21 0.20
0.01 0.02 0.01 0.01 0.01 0.01 0.02 0.03 0.03 0.04 0.03 0.02 0.01 0.00 0.00 0.00 0.00 0.00 0.00 0.00 0.00 0.00 0.00 0.01 0.01 0.02 0.02 0.03 0.04 0.04 0.05 0.06 0.08 0.09 0.13 0.15 0.16 0.17 0.20 0.23 0.22 0.18 0.15 0.16
0.01 0.02 0.02 0.01 0.01 0.01 0.02 0.02 0.02 0.04 0.04 0.03 0.02 0.01 0.00 0.00 0.00 0.00 0.00 0.00 0.00 0.00 0.00 0.00 0.01 0.01 0.01 0.01 0.02 0.03 0.04 0.05 0.05 0.07 0.08 0.10 0.12 0.12 0.13 0.15 0.17 0.14 0.12 0.12
0.01 0.02 0.02 0.01 0.01 0.01 0.01 0.02 0.03 0.03 0.03 0.04 0.03 0.02 0.01 0.00 0.00 0.00 0.00 0.00 0.00 0.00 0.00 0.00 0.01 0.01 0.01 0.01 0.01 0.01 0.02 0.03 0.04 0.05 0.06 0.07 0.07 0.08 0.08 0.09 0.11 0.13 0.13 0.11
0.01 0.02 0.02 0.02 0.00 0.00 0.01 0.02 0.04 0.05 0.03 0.03 0.03 0.03 0.01 0.01 0.01 0.00 0.00 0.00 0.00 0.00 0.00 0.00 0.00 0.01 0.01 0.01 0.01 0.01 0.01 0.01 0.02 0.03 0.04 0.04 0.05 0.05 0.05 0.06 0.07 0.09 0.10 0.09
0.01 0.01 0.02 0.01 0.02 0.02 0.03 0.03 0.04 0.06 0.06 0.05 0.04 0.03 0.01 0.01 0.01 0.00 0.00 0.00 0.00 0.00 0.00 0.00 0.00 0.00 0.01 0.01 0.01 0.01 0.01 0.01 0.01 0.01 0.02 0.02 0.03 0.04 0.04 0.04 0.05 0.07 0.07 0.06
0.01 0.01 0.01 0.02 0.02 0.04 0.04 0.04 0.05 0.07 0.08 0.06 0.05 0.03 0.02 0.02 0.01 0.00 0.00 0.00 0.00 0.00 0.00 0.00 0.00 0.00 0.00 0.00 0.00 0.01 0.00 0.00 0.00 0.01 0.01 0.01 0.02 0.02 0.02 0.03 0.04 0.05 0.05 0.05
0.01 0.01 0.01 0.01 0.01 0.01 0.02 0.02 0.03 0.05 0.05 0.07 0.05 0.04 0.04 0.04 0.02 0.01 0.01 0.00 0.00 0.00 0.00 0.00 0.00 0.00 0.00 0.00 0.00 0.00 0.00 0.00 0.00 0.01 0.01 0.01 0.01 0.01 0.01 0.01 0.02 0.02 0.02 0.02
0.00 0.01 0.01 0.01 0.01 0.01 0.02 0.02 0.02 0.02 0.03 0.04 0.03 0.03 0.03 0.03 0.01 0.01 0.01 0.01 0.00 0.00 0.00 0.00 0.00 0.00 0.00 0.00 0.00 0.00 0.00 0.00 0.00 0.00 0.00 0.01 0.01 0.01 0.01 0.01 0.01 0.01 0.01 0.01
0.00 0.00 0.01 0.01 0.00 0.00 0.01 0.02 0.02 0.03 0.03 0.04 0.05 0.04 0.02 0.02 0.01 0.01 0.02 0.01 0.01 0.01 0.00 0.00 0.00 0.00 0.00 0.00 0.00 0.01 0.00 0.00 0.00 0.00 0.00 0.00 0.01 0.01 0.01 0.01 0.01 0.01 0.01 0.01
0.00 0.00 0.00 0.00 0.00 0.00 0.01 0.01 0.01 0.02 0.04 0.04 0.04 0.03 0.02 0.03 0.02 0.02 0.03 0.02 0.01 0.01 0.00 0.00 0.00 0.00 0.00 0.00 0.01 0.01 0.00 0.00 0.00 0.00 0.00 0.00 0.00 0.01 0.01 0.01 0.01 0.01 0.01 0.01
0.00 0.01 0.01 0.01 0.00 0.00 0.01 0.00 0.01 0.02 0.02 0.02 0.02 0.02 0.01 0.01 0.01 0.01 0.02 0.02 0.01 0.01 0.01 0.00 0.00 0.00 0.00 0.00 0.01 0.00 0.00 0.00 0.00 0.00 0.00 0.00 0.00 0.00 0.01 0.01 0.01 0.01 0.01 0.01
0.00 0.01 0.01 0.01 0.01 0.00 0.00 0.00 0.00 0.01 0.02 0.01 0.01 0.01 0.01 0.02 0.03 0.02 0.01 0.02 0.01 0.01 0.01 0.01 0.00 0.00 0.00 0.00 0.01 0.00 0.00 0.00 0.00 0.00 0.01 0.01 0.01 0.01 0.01 0.01 0.01 0.01 0.01 0.02
0.00 0.00 0.01 0.01 0.01 0.00 0.00 0.00 0.01 0.03 0.02 0.01 0.01 0.01 0.02 0.03 0.03 0.03 0.01 0.01 0.02 0.01 0.01 0.01 0.01 0.00 0.00 0.00 0.01 0.01 0.01 0.01 0.01 0.01 0.01 0.01 0.01 0.01 0.01 0.01 0.02 0.02 0.02 0.02
0.00 0.00 0.00 0.00 0.01 0.01 0.01 0.02 0.02 0.03 0.01 0.01 0.01 0.01 0.02 0.03 0.03 0.03 0.02 0.02 0.02 0.03 0.02 0.02 0.02 0.01 0.01 0.01 0.01 0.01 0.01 0.01 0.01 0.01 0.02 0.02 0.02 0.02 0.02 0.02 0.02 0.03 0.02 0.02
0.00 0.00 0.01 0.01 0.01 0.01 0.03 0.04 0.05 0.04 0.03 0.02 0.01 0.01 0.02 0.03 0.03 0.03 0.03 0.03 0.02 0.02 0.02 0.02 0.02 0.02 0.02 0.02 0.02 0.01 0.01 0.01 0.01 0.02 0.02 0.03 0.02 0.02 0.02 0.02 0.02 0.02 0.02 0.02
0.00 0.00 0.01 0.01 0.01 0.02 0.03 0.04 0.05 0.03 0.02 0.01 0.01 0.01 0.02 0.02 0.02 0.02 0.03 0.03 0.03 0.02 0.02 0.02 0.02 0.02 0.02 0.02 0.02 0.02 0.02 0.02 0.02 0.02 0.02 0.03 0.03 0.03 0.02 0.02 0.02 0.01 0.01 0.01
0.00 0.00 0.00 0.01 0.01 0.01 0.01 0.01 0.01 0.01 0.00 0.00 0.01 0.01 0.01 0.01 0.02 0.02 0.02 0.03 0.03 0.04 0.03 0.02 0.02 0.01 0.02 0.02 0.01 0.02 0.03 0.02 0.02 0.02 0.02 0.02 0.02 0.02 0.02 0.02 0.02 0.02 0.01 0.01
0.00 0.00 0.01 0.01 0.00 0.01 0.01 0.00 0.00 0.00 0.00 0.00 0.00 0.01 0.01 0.01 0.02 0.02 0.02 0.03 0.03 0.03 0.03 0.03 0.03 0.02 0.01 0.01 0.02 0.01 0.02 0.03 0.02 0.02 0.02 0.02 0.01 0.01 0.02 0.02 0.02 0.03 0.02 0.02
MSLP
1014.09 1014.22 1014.21 1014.02 1013.67 1013.18 1012.64 1012.11 1011.66 1011.33 1011.15 1011.10 1011.15 1011.25 1011.34 1011.38 1011.34 1011.24 1011.08 1010.89 1010.69 1010.51 1010.36 1010.27 1010.22 1010.24 1010.33 1010.52 1010.81 1011.23 1011.78 1012.45 1013.20 1013.99 1014.76 1015.48 1016.10 1016.59 1016.96 1017.24 1017.46 1017.68 1017.94 1018.25
1014.17 1014.29 1014.27 1014.09 1013.75 1013.29 1012.76 1012.22 1011.74 1011.36 1011.09 1010.93 1010.87 1010.86 1010.87 1010.87 1010.85 1010.80 1010.73 1010.64 1010.56 1010.47 1010.41 1010.35 1010.32 1010.32 1010.38 1010.52 1010.76 1011.14 1011.65 1012.29 1013.03 1013.81 1014.59 1015.31 1015.92 1016.42 1016.78 1017.05 1017.26 1017.46 1017.69 1017.98
1014.19 1014.27 1014.23 1014.04 1013.72 1013.30 1012.81 1012.31 1011.84 1011.43 1011.10 1010.86 1010.69 1010.56 1010.47 1010.40 1010.34 1010.28 1010.24 1010.22 1010.21 1010.22 1010.22 1010.23 1010.24 1010.27 1010.33 1010.45 1010.68 1011.03 1011.51 1012.13 1012.84 1013.60 1014.37 1015.07 1015.68 1016.16 1016.52 1016.79 1016.99 1017.17 1017.38 1017.64
1014.14 1014.16 1014.07 1013.88 1013.58 1013.21 1012.79 1012.36 1011.94 1011.56 1011.22 1010.92 1010.66 1010.42 1010.22 1010.03 1009.89 1009.78 1009.72 1009.72 1009.75 1009.81 1009.88 1009.95 1010.02 1010.09 1010.18 1010.32 1010.55 1010.88 1011.35 1011.93 1012.61 1013.34 1014.07 1014.75 1015.33 1015.80 1016.16 1016.42 1016.61 1016.79 1016.98 1017.23
1014.05 1013.98 1013.84 1013.62 1013.35 1013.04 1012.71 1012.38 1012.06 1011.74 1011.42 1011.11 1010.79 1010.46 1010.14 1009.84 1009.58 1009.39 1009.27 1009.23 1009.26 1009.34 1009.46 1009.58 1009.71 1009.83 1009.96 1010.14 1010.38 1010.71 1011.15 1011.70 1012.33 1013.01 1013.69 1014.32 1014.88 1015.33 1015.67 1015.93 1016.14 1016.32 1016.52 1016.75
1013.94 1013.78 1013.58 1013.34 1013.09 1012.84 1012.61 1012.39 1012.18 1011.96 1011.71 1011.40 1011.06 1010.66 1010.24 1009.82 1009.45 1009.15 1008.94 1008.83 1008.83 1008.91 1009.04 1009.20 1009.37 1009.55 1009.73 1009.93 1010.18 1010.51 1010.93 1011.43 1012.00 1012.62 1013.23 1013.82 1014.33 1014.76 1015.10 1015.37 1015.59 1015.79 1016.01 1016.27
1013.88 1013.63 1013.36 1013.10 1012.86 1012.67 1012.53 1012.42 1012.33 1012.20 1012.02 1011.76 1011.41 1010.97 1010.48 1009.96 1009.48 1009.07 1008.76 1008.58 1008.53 1008.58 1008.71 1008.89 1009.09 1009.30 1009.52 1009.75 1010.01 1010.32 1010.71 1011.15 1011.66 1012.20 1012.74 1013.27 1013.74 1014.15 1014.49 1014.78 1015.03 1015.28 1015.54 1015.83
1013.93 1013.61 1013.27 1012.98 1012.74 1012.59 1012.51 1012.49 1012.49 1012.45 1012.34 1012.12 1011.78 1011.33 1010.78 1010.20 1009.64 1009.14 1008.75 1008.50 1008.39 1008.40 1008.52 1008.71 1008.93 1009.16 1009.40 1009.64 1009.90 1010.18 1010.52 1010.91 1011.34 1011.80 1012.28 1012.74 1013.18 1013.57 1013.93 1014.25 1014.55 1014.86 1015.18 1015.52
1014.14 1013.75 1013.37 1013.04 1012.79 1012.64 1012.60 1012.62 1012.67 1012.69 1012.62 1012.43 1012.11 1011.65 1011.09 1010.48 1009.86 1009.31 1008.87 1008.57 1008.42 1008.41 1008.51 1008.70 1008.92 1009.16 1009.41 1009.65 1009.89 1010.15 1010.43 1010.75 1011.11 1011.50 1011.91 1012.32 1012.73 1013.12 1013.50 1013.86 1014.22 1014.59 1014.98 1015.39
1014.52 1014.10 1013.68 1013.31 1013.03 1012.86 1012.80 1012.82 1012.87 1012.90 1012.84 1012.67 1012.36 1011.91 1011.36 1010.74 1010.12 1009.56 1009.11 1008.79 1008.63 1008.61 1008.70 1008.88 1009.11 1009.35 1009.59 1009.81 1010.03 1010.25 1010.48 1010.74 1011.03 1011.36 1011.72 1012.09 1012.48 1012.88 1013.28 1013.69 1014.10 1014.54 1014.99 1015.46
1015.07 1014.64 1014.19 1013.79 1013.46 1013.24 1013.13 1013.10 1013.10 1013.09 1013.01 1012.83 1012.52 1012.09 1011.56 1010.98 1010.40 1009.87 1009.44 1009.15 1009.00 1008.99 1009.09 1009.27 1009.50 1009.73 1009.95 1010.16 1010.34 1010.52 1010.71 1010.91 1011.15 1011.43 1011.75 1012.10 1012.49 1012.90 1013.33 1013.77 1014.24 1014.73 1015.22 1015.74
1015.73 1015.31 1014.85 1014.41 1014.04 1013.75 1013.56 1013.44 1013.36 1013.28 1013.16 1012.95 1012.64 1012.23 1011.75 1011.22 1010.71 1010.24 1009.88 1009.64 1009.53 1009.55 1009.66 1009.85 1010.07 1010.29 1010.49 1010.66 1010.82 1010.96 1011.11 1011.27 1011.47 1011.72 1012.02 1012.36 1012.75 1013.17 1013.63 1014.11 1014.61 1015.12 1015.65 1016.17
1016.44 1016.04 1015.59 1015.13 1014.70 1014.34 1014.05 1013.84 1013.67 1013.51 1013.32 1013.09 1012.78 1012.41 1011.98 1011.53 1011.10 1010.72 1010.43 1010.26 1010.20 1010.25 1010.38 1010.56 1010.77 1010.97 1011.15 1011.29 1011.41 1011.52 1011.63 1011.77 1011.95 1012.19 1012.48 1012.83 1013.22 1013.66 1014.14 1014.64 1015.15 1015.68 1016.20 1016.72
1017.13 1016.77 1016.33 1015.85 1015.39 1014.96 1014.59 1014.28 1014.03 1013.79 1013.56 1013.30 1013.01 1012.68 1012.32 1011.96 1011.62 1011.33 1011.13 1011.01 1011.00 1011.07 1011.20 1011.37 1011.55 1011.71 1011.85 1011.96 1012.05 1012.13 1012.22 1012.34 1012.51 1012.75 1013.05 1013.41 1013.83 1014.29 1014.78 1015.29 1015.81 1016.32 1016.82 1017.31
1017.76 1017.44 1017.02 1016.54 1016.05 1015.58 1015.15 1014.78 1014.46 1014.17 1013.92 1013.66 1013.40 1013.13 1012.84 1012.56 1012.31 1012.10 1011.95 1011.88 1011.88 1011.95 1012.06 1012.19 1012.32 1012.44 1012.53 1012.59 1012.64 1012.69 1012.76 1012.88 1013.06 1013.31 1013.63 1014.02 1014.47 1014.96 1015.47 1015.98 1016.49 1016.97 1017.44 1017.88
1018.30 1018.02 1017.63 1017.16 1016.66 1016.17 1015.71 1015.30 1014.96 1014.67 1014.42 1014.20 1013.99 1013.79 1013.58 1013.37 1013.18 1013.02 1012.91 1012.84 1012.82 1012.84 1012.90 1012.96 1013.02 1013.06 1013.09 1013.09 1013.10 1013.12 1013.18 1013.30 1013.49 1013.77 1014.12 1014.55 1015.04 1015.55 1016.09 1016.61 1017.10 1017.57 1017.99 1018.39
1018.77 1018.53 1018.16 1017.71 1017.22 1016.73 1016.27 1015.87 1015.54 1015.28 1015.08 1014.92 1014.78 1014.65 1014.51 1014.36 1014.20 1014.06 1013.93 1013.83 1013.75 1013.69 1013.65 1013.62 1013.58 1013.54 1013.48 1013.42 1013.37 1013.36 1013.41 1013.53 1013.75 1014.06 1014.46 1014.93 1015.46 1016.02 1016.58 1017.11 1017.61 1018.06 1018.45 1018.79
1019.18 1018.97 1018.63 1018.20 1017.73 1017.26 1016.83 1016.46 1016.19 1015.99 1015.87 1015.78 1015.72 1015.66 1015.57 1015.45 1015.31 1015.14 1014.96 1014.78 1014.61 1014.44 1014.28 1014.13 1013.98 1013.83 1013.69 1013.56 1013.46 1013.42 1013.45 1013.58 1013.81 1014.15 1014.59 1015.11 1015.69 1016.30 1016.90 1017.46 1017.97 1018.41 1018.78 1019.09
1019.57 1019.38 1019.06 1018.65 1018.20 1017.76 1017.37 1017.07 1016.86 1016.75 1016.71 1016.72 1016.73 1016.72 1016.67 1016.57 1016.40 1016.18 1015.91 1015.63 1015.34 1015.04 1014.76 1014.48 1014.22 1013.98 1013.75 1013.56 1013.41 1013.33 1013.35 1013.47 1013.72 1014.08 1014.56 1015.12 1015.75 1016.40 1017.04 1017.64 1018.17 1018.62 1018.99 1019.28
1019.95 1019.77 1019.45 1019.05 1018.62 1018.22 1017.89 1017.66 1017.53 1017.51 1017.55 1017.63 1017.71 1017.74 1017.71 1017.58 1017.36 1017.07 1016.71 1016.31 1015.90 1015.48 1015.08 1014.70 1014.35 1014.02 1013.73 1013.48 1013.30 1013.19 1013.18 1013.30 1013.54 1013.92 1014.42 1015.01 1015.68 1016.37 1017.05 1017.68 1018.24 1018.71 1019.08 1019.37
1020.30 1020.11 1019.80 1019.41 1019.01 1018.64 1018.36 1018.19 1018.14 1018.19 1018.31 1018.45 1018.57 1018.62 1018.57 1018.40 1018.12 1017.74 1017.29 1016.79 1016.27 1015.76 1015.27 1014.82 1014.40 1014.03 1013.70 1013.42 1013.21 1013.08 1013.06 1013.15 1013.39 1013.75 1014.25 1014.85 1015.53 1016.25 1016.96 1017.62 1018.20 1018.69 1019.08 1019.38
1020.59 1020.39 1020.08 1019.70 1019.32 1018.99 1018.75 1018.64 1018.65 1018.76 1018.93 1019.10 1019.23 1019.27 1019.19 1018.97 1018.61 1018.15 1017.61 1017.03 1016.44 1015.87 1015.34 1014.86 1014.43 1014.05 1013.72 1013.45 1013.23 1013.08 1013.04 1013.11 1013.31 1013.65 1014.12 1014.70 1015.37 1016.08 1016.80 1017.48 1018.09 1018.60 1019.00 1019.30
1020.77 1020.56 1020.25 1019.89 1019.53 1019.24 1019.06 1018.99 1019.05 1019.19 1019.38 1019.56 1019.66 1019.67 1019.53 1019.24 1018.81 1018.28 1017.67 1017.04 1016.42 1015.83 1015.31 1014.85 1014.46 1014.11 1013.82 1013.57 1013.37 1013.23 1013.17 1013.21 1013.36 1013.65 1014.07 1014.60 1015.23 1015.92 1016.62 1017.29 1017.90 1018.42 1018.84 1019.16
1020.79 1020.59 1020.29 1019.96 1019.64 1019.40 1019.26 1019.24 1019.32 1019.48 1019.66 1019.81 1019.88 1019.82 1019.61 1019.25 1018.75 1018.15 1017.50 1016.85 1016.22 1015.67 1015.19 1014.80 1014.47 1014.21 1013.99 1013.79 1013.62 1013.50 1013.42 1013.43 1013.53 1013.75 1014.10 1014.56 1015.13 1015.76 1016.42 1017.07 1017.67 1018.19 1018.62 1018.94
1020.65 1020.46 1020.19 1019.90 1019.64 1019.45 1019.36 1019.38 1019.49 1019.65 1019.81 1019.91 1019.91 1019.77 1019.48 1019.04 1018.47 1017.83 1017.15 1016.50 1015.91 1015.40 1015.00 1014.70 1014.48 1014.31 1014.18 1014.06 1013.94 1013.84 1013.76 1013.74 1013.79 1013.94 1014.20 1014.58 1015.06 1015.62 1016.22 1016.83 1017.39 1017.90 1018.32 1018.65
1020.33 1020.17 1019.95 1019.73 1019.54 1019.42 1019.40 1019.46 1019.59 1019.74 1019.86 1019.91 1019.83 1019.61 1019.23 1018.71 1018.08 1017.39 1016.71 1016.07 1015.51 1015.08 1014.76 1014.56 1014.45 1014.39 1014.35 1014.31 1014.26 1014.19 1014.12 1014.07 1014.08 1014.16 1014.34 1014.63 1015.03 1015.50 1016.02 1016.56 1017.09 1017.56 1017.96 1018.28
Thickness
5481 5475 5475 5478 5483 5487 5491 5496 5499 5508 5518 5522 5528 5539 5553 5563 5570 5577 5586 5596 5607 5617 5627 5635 5643 5648 5652 5659 5663 5666 5668 5669 5670 5670 5669 5669 5670 5671 5672 5671 5670 5670 5669 5668
5473 5473 5480 5485 5488 5490 5491 5492 5498 5508 5516 5523 5526 5536 5549 5558 5566 5575 5583 5592 5603 5613 5620 5629 5636 5641 5646 5651 5657 5660 5663 5665 5666 5669 5669 5669 5668 5667 5667 5666 5665 5665 5665 5664
5473 5477 5485 5487 5487 5489 5490 5490 5494 5502 5511 5519 5522 5531 5543 5555 5564 5572 5581 5591 5600 5609 5616 5623 5629 5634 5640 5646 5651 5656 5659 5660 5662 5664 5663 5661 5660 5659 5659 5660 5660 5660 5660 5659
5475 5479 5483 5485 5486 5488 5488 5495 5498 5502 5505 5507 5516 5519 5538 5547 5556 5568 5576 5585 5593 5603 5611 5618 5624 5628 5634 5640 5645 5649 5652 5654 5656 5658 5658 5657 5657 5656 5658 5658 5657 5656 5655 5654
5478 5480 5481 5483 5487 5490 5490 5496 5498 5500 5499 5501 5509 5513 5529 5540 5549 5562 5572 5580 5589 5598 5605 5612 5619 5624 5629 5634 5638 5642 5645 5648 5651 5652 5654 5652 5652 5653 5653 5652 5651 5649 5648 5647
5480 5483 5483 5485 5490 5492 5492 5492 5493 5491 5492 5494 5505 5509 5521 5532 5547 5558 5568 5576 5584 5591 5598 5606 5613 5618 5623 5627 5630 5634 5638 5642 5644 5646 5647 5647 5648 5647 5645 5644 5643 5642 5641 5640
5479 5483 5485 5487 5488 5489 5488 5481 5476 5479 5479 5489 5503 5507 5520 5538 5546 5554 5563 5570 5577 5584 5591 5599 5605 5611 5615 5620 5624 5628 5631 5634 5637 5640 5641 5642 5643 5642 5641 5639 5638 5636 5634 5633
5472 5472 5483 5486 5486 5485 5484 5480 5476 5478 5481 5488 5500 5505 5521 5536 5542 5550 5557 5564 5571 5578 5585 5591 5598 5603 5608 5612 5616 5621 5625 5628 5631 5633 5634 5635 5636 5636 5636 5634 5632 5631 5630 5629
5471 5474 5485 5487 5488 5488 5483 5479 5481 5475 5478 5485 5496 5505 5519 5534 5537 5542 5548 5556 5562 5569 5577 5583 5589 5594 5598 5602 5607 5613 5617 5620 5623 5625 5626 5627 5628 5628 5627 5626 5625 5623 5622 5620
5477 5474 5480 5484 5487 5486 5485 5482 5475 5474 5479 5488 5496 5500 5508 5521 5526 5532 5538 5544 5552 5559 5566 5573 5578 5582 5586 5591 5596 5602 5607 5611 5615 5616 5617 5618 5618 5618 5618 5617 5615 5613 5612 5611
5477 5472 5474 5478 5479 5479 5479 5478 5476 5471 5474 5477 5485 5499 5512 5511 5516 5521 5527 5533 5540 5548 5554 5560 5566 5570 5574 5580 5585 5590 5596 5600 5603 5605 5606 5607 5607 5607 5608 5607 5605 5603 5602 5600
5476 5468 5465 5471 5479 5481 5479 5478 5476 5474 5472 5469 5473 5492 5511 5506 5510 5514 5519 5525 5530 5536 5541 5547 5553 5558 5563 5568 5573 5578 5583 5587 5590 5592 5594 5595 5596 5596 5596 5595 5594 5592 5590 5588
5477 5466 5457 5464 5471 5473 5474 5474 5475 5472 5468 5466 5471 5489 5506 5503 5506 5509 5511 5515 5520 5527 5532 5537 5542 5546 5551 5556 5560 5565 5569 5574 5576 5579 5582 5582 5583 5584 5584 5583 5582 5581 5579 5577
5480 5465 5458 5461 5464 5466 5469 5473 5473 5467 5464 5468 5475 5484 5495 5496 5498 5501 5504 5506 5510 5516 5522 5527 5530 5535 5539 5544 5548 5552 5557 5561 5564 5567 5569 5570 5571 5572 5572 5571 5570 5569 5568 5566
5473 5464 5462 5464 5466 5466 5467 5470 5472 5470 5468 5467 5476 5479 5484 5486 5489 5492 5496 5500 5504 5509 5513 5517 5520 5524 5529 5533 5537 5541 5545 5549 5552 5555 5557 5557 5558 5559 5558 5558 5557 5556 5555 5553
5463 5460 5460 5462 5465 5464 5466 5469 5470 5470 5470 5471 5472 5475 5480 5481 5483 5486 5488 5492 5496 5499 5503 5508 5512 5515 5519 5523 5528 5531 5534 5537 5540 5542 5544 5545 5545 5545 5545 5545 5544 5543 5541 5540
5457 5456 5455 5453 5456 5465 5463 5466 5467 5467 5465 5466 5467 5469 5473 5475 5478 5479 5480 5482 5485 5489 5494 5498 5502 5506 5510 5514 5518 5521 5524 5526 5528 5530 5532 5533 5533 5532 5532 5532 5531 5530 5528 5527
5456 5454 5448 5449 5454 5456 5466 5466 5466 5464 5462 5459 5461 5462 5464 5467 5471 5472 5473 5474 5477 5480 5484 5488 5492 5496 5500 5505 5508 5511 5514 5515 5517 5519 5520 5521 5521 5521 5520 5520 5519 5517 5516 5515
5457 5455 5448 5445 5444 5451 5463 5463 5460 5459 5460 5454 5454 5456 5458 5462 5467 5468 5468 5468 5469 5471 5474 5477 5481 5485 5490 5494 5498 5501 5503 5505 5507 5509 5510 5511 5511 5510 5509 5509 5507 5506 5505 5503
5453 5450 5445 5441 5446 5449 5461 5460 5457 5454 5453 5450 5449 5449 5450 5454 5457 5460 5460 5460 5462 5464 5467 5470 5473 5477 5481 5484 5488 5491 5493 5495 5497 5500 5501 5501 5501 5501 5501 5499 5497 5495 5494 5492
5453 5447 5441 5438 5439 5448 5455 5453 5454 5448 5448 5443 5441 5440 5441 5442 5445 5448 5451 5453 5454 5456 5459 5462 5464 5467 5470 5473 5477 5480 5482 5485 5488 5490 5491 5491 5492 5492 5491 5489 5487 5485 5484 5482
5451 5445 5444 5440 5437 5446 5454 5449 5445 5443 5438 5435 5434 5433 5434 5436 5439 5442 5444 5445 5446 5448 5451 5453 5454 5457 5459 5463 5467 5469 5471 5474 5477 5479 5480 5481 5481 5481 5480 5478 5476 5475 5474 5472
5447 5448 5445 5446 5451 5452 5448 5446 5442 5436 5432 5429 5427 5427 5428 5430 5432 5433 5435 5436 5438 5439 5441 5443 5444 5446 5449 5452 5455 5457 5459 5462 5465 5467 5468 5469 5470 5469 5469 5468 5467 5465 5464 5462
5448 5447 5444 5444 5447 5446 5444 5439 5435 5431 5428 5425 5423 5421 5421 5422 5423 5425 5427 5428 5429 5430 5431 5433 5434 5435 5438 5440 5443 5445 5448 5452 5454 5456 5457 5458 5458 5458 5457 5457 5457 5456 5455 5454
5451 5444 5442 5442 5444 5442 5441 5436 5431 5427 5423 5419 5418 5416 5415 5414 5415 5416 5418 5419 5420 5421 5422 5423 5424 5425 5427 5430 5432 5435 5438 5441 5443 5444 5446 5447 5447 5447 5446 5446 5447 5447 5448 5447
5447 5447 5444 5447 5446 5440 5437 5432 5426 5421 5418 5415 5412 5410 5409 5406 5406 5407 5408 5409 5410 5411 5413 5414 5415 5416 5418 5419 5421 5424 5427 5430 5432 5433 5434 5435 5435 5436 5435 5435 5436 5437 5437 5438